Regional Weather Roundup
Issued by NWS

Home | Current Version | Previous Version | Text Only | Print | Product List | Glossary On
Versions: 1 2 3 4 5 6 7 8 9 10 11 12 13 14 15 16 17 18 19 20 21 22 23 24 25 26 27 28 29 30 31 32 33 34 35 36 37 38 39 40 41 42 43 44 45 46 47 48 49
000
ASUS46 KPQR 231710
RWROR

OREGON REGIONAL WEATHER ROUNDUP
NATIONAL WEATHER SERVICE PORTLAND OR
1000 AM PDT SAT MAY 23 2015

NOTE: "FAIR" INDICATES FEW OR NO CLOUDS BELOW 12,000 FEET WITH
NO SIGNIFICANT WEATHER AND/OR OBSTRUCTIONS TO VISIBILITY.

ORZ001>013-231800-
NORTHWEST OREGON


CITY           SKY/WX    TMP DP  RH WIND       PRES   REMARKS
ASTORIA        CLOUDY    57  51  80 W6        30.18S
NEWPORT        PTSUNNY   54  52  94 NW3       30.23S
PORTLAND       CLOUDY    56  52  86 SW5       30.18S
VANCOUVER WA   CLOUDY    56  51  84 VRB5      30.18S
SCAPPOOSE      CLOUDY    59  49  69 CALM      30.17S
HILLSBORO      CLOUDY    58  49  72 CALM      30.17S
AURORA         CLOUDY    56  51  84 VRB5      30.19S
MCMINNVILLE    CLOUDY    58  51  78 CALM      30.18S
SALEM          CLOUDY    58  48  69 CALM      30.18S
CORVALLIS      CLOUDY    55  52  88 CALM      30.20S
EUGENE         CLOUDY    55  50  83 S3        30.20R
$$

ORZ021-028-231800-
SOUTHWEST OREGON


CITY           SKY/WX    TMP DP  RH WIND       PRES   REMARKS
NORTH BEND     CLOUDY    55  54  94 N7        30.23S
BROOKINGS      SUNNY     55  52  90 W6        30.17S
ROSEBURG       PTSUNNY   58  45  62 CALM      30.19S
SEXTON SUMMIT  FOG       42  42 100 CALM      30.16R VSB 1/4
MEDFORD        CLOUDY    57  45  64 CALM      30.16S
$$

ORZ014>016-041-231800-
COLUMBIA GORGE


CITY           SKY/WX    TMP DP  RH WIND       PRES   REMARKS
TROUTDALE      LGT RAIN  55  52  89 CALM      30.17S FOG
THE DALLES     PTSUNNY   65  47  52 NW16G28   30.06S
$$

ORZ029>031-041-044-049-050-061>064-502-503-505>511-231800-
EASTERN OREGON


CITY           SKY/WX    TMP DP  RH WIND       PRES   REMARKS
REDMOND        PTSUNNY   54  45  71 VRB3      30.10S
BEND           PTSUNNY   54  41  62 NW5       30.11S
PRINEVILLE     CLOUDY    54  46  76 NW6       30.10R
KLAMATH FALLS  CLOUDY    52  41  66 VRB6      30.10F
LAKEVIEW       CLOUDY    48  45  87 N9        30.10S
HERMISTON      MOSUNNY   65  50  58 W14       30.03S
PENDLETON      MOSUNNY   62  50  64 SW10      30.04S
JOHN DAY       CLOUDY    51  49  96 W10       30.07R
MEACHAM        CLOUDY    50  48  93 VRB3      30.07S
LA GRANDE      PTSUNNY   63  46  55 NW20G28   30.00S
BAKER CITY     PTSUNNY   61  52  72 NW14      30.00S
BURNS          PTSUNNY   59  46  62 NW17      30.02F
ROME             N/A     57  48  72 SW10      29.99S
ONTARIO        MOSUNNY   72  53  51 N9        29.91F
$$



USA.gov is the U.S. government's official web portal to all federal, state and local government web resources and services.